星链-3502 (STARLINK-3502 )

导读

STARLINK-3502是美国太空探索技术公司(SpaceX)星链(Starlink)互联网卫星星座的一员,于2022年2月21日发射升空,属于星链项目Group 4批次的组网卫星。星链计划旨在构建全球卫星互联网,该卫星承担着为全球尤其是偏远地区提供低延迟宽带网络服务的任务,是SpaceX大规模卫星组网进程中的组成部分。

Basic Information
目录编号:
51746
目录名称:
STARLINK-3502
国际标识:
2022-016AJ
轨道中心:
EARTH
卫星名称:
星链-3502
卫星全名:
星链-3502 (STARLINK-3502 )
卫星状态:
在轨 (已飞行1657 天)
发射日期:
2022-02-21 UTC
国别 :
美国 (US)
星等 :
--
Orbit Information
数据来源 国际轨道数据
星历时间: 2026-09-05T12:06:40+0800
5小时前
查看轨道信息
半长轴: 6848.88km
偏心率: 0.0001363
轨道倾角: 53.160°
近地点辐角 87.794°
升交点赤经 213.136°
平近点角 272.321°
近地点: 469.809km
远地点: 471.677km
周期: 94.013分钟
每日圈数: 15.316993
Detailed Information
固有亮度:
5
最大亮度:
2.5
卫星平台:
Starlink v1.5
覆盖范围:
全球
运营商:
太空探索技术公司
运营商所在国:
美国
制造商(研发单位):
太空探索技术公司
制造商所在国:
美国
使用方式:
暂无
Satellite Introduction
星链(Starlink)计划是由太空探索技术公司(SpaceX)提出的一个巨型低轨卫星互联网星座项目,计划在2019年至2024年间在太空搭建由约1.2万颗卫星组成的“星链”网络,其中1584颗将部署在地球上空550千米处的近地轨道,并从2020年开始工作。该卫星仍在工作。
2D Orbit Map
3D Orbit Map
Orbit Altitude Analysis Chart
Orbit Inclination Analysis Chart
Orbit Comprehensive Analysis Chart
View Comprehensive Chart
Conjunction Data List
Event ID Objects TCA Miss Dist (km) Collision Risk Probability Collision Risk Index (CRI) Action
CDM_260904-212305-174606-880321
2026-09-04T
21:23:48+0000
2.792 km
极远距离
1.370747E-6 低风险 0.38
CDM_260905-175905-174605-701422
OBJECT L (57014)
2026-09-05T
17:59:11+0000
2.953 km
极远距离
1.340302E-6 低风险 0.38
CDM_260906-145505-174606-968921
2026-09-06T
14:55:37+0000
2.862 km
极远距离
1.29124E-6 低风险 0.37
CDM_260902-041705-174606-930421
2026-09-02T
04:17:56+0000
2.965 km
极远距离
9.324057E-7 极低风险 0.34
CDM_260905-221805-174605-635621
2026-09-05T
22:18:57+0000
2.985 km
极远距离
8.921508E-7 极低风险 0.34